Location: Moscow
(55.7500°N, 37.5830°E)
Time: 08:50:23
(UTC+03:00)

N. Korean satellite - Pass Details

Date: 31 October 2021
Orbit: 446 x 495 km, 97.3° (Epoch: 04 December)

Event Time Altitude Azimuth Distance (km) Brightness Sun altitude
Rises 17:26:40 0° 191° (S) 2,560 10.7 -5.4°
Reaches altitude 10° 17:28:55 10° 203° (SSW) 1,689 9.9 -5.7°
Maximum altitude 17:32:08 29° 265° (W) 932 9.0 -6.1°
Drops below altitude 10° 17:35:25 10° 328° (NNW) 1,712 9.6 -6.6°
Sets 17:37:42 0° 339° (NNW) 2,602 10.3 -6.9°
